Orange City, IA

12:28 AM CDT on September 27, 2016 (GMT -0500)
Orange City Municipal

Weather History for KORC - April, 2013

Change the Weather History Date:

Thursday, April 18, 2013

  Actual Average Record
Temperature  
Mean Temperature 30 °F -  
Max Temperature 33 °F 59 °F 87 °F (1948)
Min Temperature 28 °F 38 °F 18 °F (1953)
Degree Days  
Heating Degree Days 34    
Moisture  
Dew Point 29 °F    
Average Humidity 89    
Maximum Humidity 93    
Minimum Humidity 81    
Precipitation  
Precipitation 0.13 in - - ()
Sea Level Pressure  
Sea Level Pressure 29.76 in    
Wind  
Wind Speed 16 mph (NNW)    
Max Wind Speed 26 mph    
Max Gust Speed 36 mph    
Visibility 3 miles    
Events Snow    
Averages and records for this station are not official NWS values.
T = Trace of Precipitation, MM = Missing Value Source: NWS Daily Summary

Daily Weather History Graph

Daily Weather History Graph

Search for Another Location

Airport or City:

Trip Planner

Search our weather history database for the weather conditions in past years. The results will help you decide how hot, cold, wet, or windy it might be!

Date:

Astronomy

Apr. 18, 2013 Rise Set
Actual Time 6:37 AM CDT 8:10 PM CDT
Civil Twilight 6:07 AM CDT 8:40 PM CDT
Nautical Twilight 5:31 AM CDT 9:16 PM CDT
Astronomical Twilight 4:53 AM CDT 9:55 PM CDT
Moon 12:48 PM CDT (4/18) 2:27 AM CDT (4/18)
Length of Visible Light 14h 33m
Length of Day
13h 33m
First Quarter, 52% of the Moon is Illuminated
Apr 18
First Quarter
Apr 25
Full
May 2
Last Quarter
May 9
New
May 17
First Quarter

Hourly Weather History & Observations

Time (CDT) Temp. Windchill Dew Point Humidity Pressure Visibility Wind Dir Wind Speed Gust Speed Precip Events Conditions
12:15 AM 33.8 °F 24.8 °F 30.2 °F 87% 29.84 in 10.0 mi North 12.7 mph 23.0 mph N/A   Overcast
12:35 AM 33.8 °F 24.3 °F 30.2 °F 87% 29.85 in 10.0 mi North 13.8 mph 20.7 mph N/A   Overcast
12:55 AM 33.8 °F 24.3 °F 30.2 °F 87% 29.86 in 10.0 mi North 13.8 mph 20.7 mph N/A   Overcast
1:15 AM 33.8 °F 24.3 °F 30.2 °F 87% 29.84 in 10.0 mi North 13.8 mph 24.2 mph N/A   Overcast
1:35 AM 33.8 °F 23.9 °F 30.2 °F 87% 29.84 in 10.0 mi North 15.0 mph 20.7 mph N/A   Overcast
1:55 AM 33.8 °F 25.3 °F 30.2 °F 87% 29.87 in 10.0 mi North 11.5 mph 18.4 mph N/A   Overcast
2:15 AM 33.8 °F 26.4 °F 30.2 °F 87% 29.88 in 10.0 mi North 9.2 mph 16.1 mph N/A   Overcast
2:35 AM 33.8 °F 25.3 °F 30.2 °F 87% 29.88 in 10.0 mi North 11.5 mph - N/A   Overcast
2:55 AM 33.8 °F 24.3 °F 30.2 °F 87% 29.86 in 10.0 mi North 13.8 mph 18.4 mph N/A   Overcast
3:15 AM 33.8 °F 24.3 °F 30.2 °F 87% 29.83 in 7.0 mi NNE 13.8 mph 20.7 mph N/A   Overcast
3:35 AM 33.8 °F 24.8 °F 30.2 °F 87% 29.82 in 2.5 mi North 12.7 mph 19.6 mph N/A Snow Light Snow
3:55 AM 33.8 °F 24.3 °F 30.2 °F 87% 29.79 in 2.0 mi North 13.8 mph 19.6 mph N/A Snow Light Snow
4:15 AM 33.8 °F 24.3 °F 30.2 °F 87% 29.77 in 1.2 mi North 13.8 mph 23.0 mph N/A Snow Light Snow
4:35 AM 33.8 °F 25.3 °F 30.2 °F 87% 29.79 in 2.5 mi North 11.5 mph 18.4 mph N/A Snow Light Snow
4:55 AM 33.8 °F 24.8 °F 30.2 °F 87% 29.76 in 7.0 mi North 12.7 mph 20.7 mph N/A Snow Light Snow
5:15 AM 33.8 °F 23.5 °F 30.2 °F 87% 29.74 in 10.0 mi North 16.1 mph 21.9 mph N/A Snow Light Snow
5:55 AM 33.8 °F 23.9 °F 30.2 °F 87% 29.73 in 5.0 mi North 15.0 mph 24.2 mph N/A Snow Light Snow
6:15 AM 33.8 °F 24.3 °F 30.2 °F 87% 29.74 in 2.5 mi North 13.8 mph 21.9 mph N/A Snow Light Snow
6:35 AM 33.8 °F 24.8 °F 30.2 °F 87% 29.73 in 2.5 mi North 12.7 mph 20.7 mph N/A Snow Light Snow
6:55 AM 33.8 °F 23.5 °F 30.2 °F 87% 29.71 in 1.5 mi North 16.1 mph 24.2 mph N/A Snow Light Snow
7:15 AM 32.0 °F 21.6 °F 30.2 °F 93% 29.71 in 1.0 mi North 15.0 mph 24.2 mph N/A Snow Light Snow
7:35 AM 33.8 °F 25.3 °F 30.2 °F 87% 29.74 in 2.0 mi North 11.5 mph 19.6 mph N/A Snow Light Snow
7:55 AM 33.8 °F 24.8 °F 30.2 °F 87% 29.74 in 1.5 mi North 12.7 mph 20.7 mph N/A   Overcast
8:15 AM 32.0 °F 21.6 °F 30.2 °F 93% 29.73 in 1.0 mi North 15.0 mph 24.2 mph N/A Snow Light Snow
8:35 AM 33.8 °F 23.9 °F 30.2 °F 87% 29.75 in 0.8 mi North 15.0 mph 21.9 mph N/A Snow Light Snow
8:55 AM 32.0 °F 20.5 °F 30.2 °F 93% 29.77 in 0.8 mi North 18.4 mph 23.0 mph N/A Snow Light Snow
9:15 AM 32.0 °F 21.6 °F 28.4 °F 87% 29.77 in 0.8 mi NNW 15.0 mph 23.0 mph N/A Snow Light Snow
9:35 AM 32.0 °F 20.1 °F 28.4 °F 87% 29.75 in 0.5 mi NNW 19.6 mph 25.3 mph N/A Snow Light Snow
9:55 AM 32.0 °F 20.5 °F 28.4 °F 87% 29.75 in 0.5 mi NNW 18.4 mph 28.8 mph N/A Snow Light Snow
10:15 AM 30.2 °F 17.8 °F 28.4 °F 93% 29.74 in 0.5 mi NNW 19.6 mph 28.8 mph N/A Snow Light Snow
10:35 AM 30.2 °F 18.1 °F 28.4 °F 93% 29.75 in 0.5 mi NNW 18.4 mph 27.6 mph N/A Snow Light Snow
10:55 AM 30.2 °F 17.8 °F 28.4 °F 93% 29.74 in 0.5 mi NNW 19.6 mph 27.6 mph N/A Snow Snow
11:15 AM 30.2 °F 18.5 °F 28.4 °F 93% 29.75 in 0.5 mi NNW 17.3 mph 25.3 mph N/A Snow Light Snow
11:35 AM 30.2 °F 18.1 °F 28.4 °F 93% 29.74 in 0.5 mi NNW 18.4 mph 26.5 mph N/A Snow Light Snow
11:55 AM 30.2 °F 18.5 °F 26.6 °F 86% 29.73 in 0.5 mi NNW 17.3 mph 28.8 mph N/A Snow Light Snow
12:15 PM 30.2 °F 18.5 °F 28.4 °F 93% 29.73 in 0.5 mi NNW 17.3 mph 24.2 mph 0.01 in Snow Light Snow
12:35 PM 30.2 °F 18.5 °F 26.6 °F 86% 29.73 in 0.5 mi NNW 17.3 mph 24.2 mph 0.03 in Snow Light Snow
1:15 PM 32.0 °F 20.1 °F 28.4 °F 87% 29.70 in 0.2 mi NNW 19.6 mph 25.3 mph 0.02 in Snow Snow
1:35 PM 32.0 °F 20.1 °F 28.4 °F 87% 29.71 in 0.5 mi NNW 19.6 mph 25.3 mph 0.05 in Snow Snow
1:55 PM 32.0 °F 19.5 °F 28.4 °F 87% 29.70 in 0.5 mi NNW 21.9 mph 28.8 mph 0.07 in Snow Light Snow
2:15 PM 33.8 °F 22.5 °F 28.4 °F 81% 29.70 in 1.0 mi NNW 19.6 mph 28.8 mph 0.01 in Snow Light Snow
2:35 PM 33.8 °F 22.5 °F 28.4 °F 81% 29.71 in 1.0 mi NNW 19.6 mph 28.8 mph 0.02 in Snow Light Snow
2:55 PM 33.8 °F 22.8 °F 28.4 °F 81% 29.71 in 1.2 mi NNW 18.4 mph 28.8 mph 0.02 in Snow Light Snow
3:35 PM 33.8 °F 22.5 °F 28.4 °F 81% 29.72 in 0.8 mi NW 19.6 mph 26.5 mph 0.01 in Snow Light Snow
3:55 PM 33.8 °F 22.2 °F 30.2 °F 87% 29.72 in 0.8 mi NW 20.7 mph 26.5 mph 0.01 in Snow Light Snow
4:15 PM 33.8 °F 22.5 °F 28.4 °F 81% 29.72 in 0.8 mi NW 19.6 mph 25.3 mph N/A Snow Light Snow
4:35 PM 32.0 °F 19.2 °F 28.4 °F 87% 29.72 in 1.0 mi NW 23.0 mph 33.4 mph N/A Snow Light Snow
4:55 PM 32.0 °F 19.8 °F 28.4 °F 87% 29.72 in 0.8 mi NW 20.7 mph 31.1 mph N/A Snow Light Snow
5:15 PM 32.0 °F 18.4 °F 28.4 °F 87% 29.72 in 0.8 mi NW 26.5 mph 33.4 mph N/A Snow Light Snow
5:35 PM 32.0 °F 18.6 °F 28.4 °F 87% 29.73 in 0.5 mi NW 25.3 mph 33.4 mph N/A Snow Light Snow
5:55 PM 30.2 °F 17.1 °F 28.4 °F 93% 29.74 in 0.5 mi NW 21.9 mph 34.5 mph N/A Snow Snow
6:15 PM 30.2 °F 16.5 °F 28.4 °F 93% 29.74 in 0.8 mi NW 24.2 mph 31.1 mph N/A Snow Light Snow
6:35 PM 30.2 °F 16.5 °F 28.4 °F 93% 29.75 in 0.8 mi NW 24.2 mph 32.2 mph N/A Snow Light Snow
6:55 PM 30.2 °F 16.2 °F 28.4 °F 93% 29.75 in 0.8 mi NW 25.3 mph 31.1 mph N/A Snow Light Snow
7:15 PM 30.2 °F 16.8 °F 28.4 °F 93% 29.76 in 1.0 mi NW 23.0 mph 34.5 mph N/A Snow Light Snow
7:35 PM 30.2 °F 16.5 °F 28.4 °F 93% 29.77 in 0.8 mi NW 24.2 mph 32.2 mph N/A Snow Light Snow
7:55 PM 30.2 °F 17.4 °F 28.4 °F 93% 29.77 in 0.8 mi NW 20.7 mph 29.9 mph N/A Snow Light Snow
8:15 PM 30.2 °F 17.1 °F 28.4 °F 93% 29.78 in 1.8 mi NW 21.9 mph 29.9 mph N/A Snow Light Snow
8:35 PM 30.2 °F 16.8 °F 28.4 °F 93% 29.78 in 1.8 mi NW 23.0 mph 31.1 mph N/A Snow Light Snow
9:55 PM 30.2 °F 16.8 °F 28.4 °F 93% 29.79 in 1.8 mi NW 23.0 mph 33.4 mph N/A Snow Light Snow
10:35 PM 30.2 °F 16.5 °F 28.4 °F 93% 29.79 in 2.0 mi NW 24.2 mph 31.1 mph N/A Snow Light Snow
10:55 PM 30.2 °F 16.8 °F 26.6 °F 86% 29.78 in 1.8 mi NW 23.0 mph 32.2 mph N/A Snow Light Snow
11:15 PM 30.2 °F 16.8 °F 26.6 °F 86% 29.78 in 1.8 mi NW 23.0 mph 29.9 mph N/A Snow Light Snow
11:35 PM 28.4 °F 14.7 °F 26.6 °F 93% 29.77 in 1.2 mi NW 21.9 mph 35.7 mph N/A Snow Light Snow
11:55 PM 28.4 °F 14.4 °F 26.6 °F 93% 29.78 in 1.5 mi NW 23.0 mph 32.2 mph N/A Snow Light Snow